Location: Northcutt
(34.7304°N, 84.4305°W)
Time: 04:59:12
(UTC+00:00)

Vanguard 2 - Pass Details

Date: 06 October 2022
Orbit: 553 x 2933 km, 32.9° (Epoch: 05 December)

Event Time Altitude Azimuth Distance (km) Brightness Sun altitude
Rises 17:38:54 0° 246° (WSW) 4,099 11.5 49.8°
Reaches altitude 10° 17:41:15 10° 244° (WSW) 3,382 11.3 49.8°
Maximum altitude 17:50:13 71° 162° (SSE) 1,986 11.1 49.5°
Drops below altitude 10° 18:05:06 10° 83° (E) 5,361 11.8 48.9°
Sets 18:09:52 0° 82° (E) 6,587 12.1 48.6°
